Location: Mahannah Oil Field
(37.4664°N, 96.6003°W)
Time: 02:00:37
(UTC+00:00)

deb Explorer IX - Pass Details

Date: 26 January 2021
Orbit: 537 x 1102 km, 38.8° (Epoch: 25 February)

Event Time Altitude Azimuth Distance (km) Brightness Sun altitude
Rises 20:29:31 0° 196° (SSW) 3,901 ? 28.3°
Reaches altitude 10° 20:33:28 10° 176° (S) 2,927 ? 27.9°
Maximum altitude 20:37:39 16° 141° (SE) 2,434 ? 27.5°
Drops below altitude 10° 20:41:41 10° 105° (ESE) 2,806 ? 27.0°
Sets 20:45:19 0° 85° (E) 3,665 ? 26.6°
